Vernon, TX

11:41 PM CST on November 18, 2017 (GMT -0600)
Vernon

Weather History for KF05 - October, 2013

Change the Weather History Date:

Wednesday, October 30, 2013

  Actual Average (KLTS) Record (KLTS)
Temperature  
Mean Temperature 76 °F -  
Max Temperature 81 °F 65 °F 86 °F (2010)
Min Temperature 70 °F 44 °F 38 °F (2012)
Cooling Degree Days 10    
Growing Degree Days 26 (Base 50)    
Moisture  
Dew Point 65 °F    
Average Humidity 73    
Maximum Humidity 86    
Minimum Humidity 58    
Precipitation  
Precipitation 0.04 in - - ()
Sea Level Pressure  
Sea Level Pressure 29.85 in    
Wind  
Wind Speed 14 mph (South)    
Max Wind Speed 22 mph    
Max Gust Speed 29 mph    
Visibility 10 miles    
Events Thunderstorm    
Averages and records for this station are not official NWS values.
T = Trace of Precipitation, MM = Missing Value Source: NWS Daily Summary

Daily Weather History Graph

Daily Weather History Graph

Search for Another Location

Airport or City:

Trip Planner

Search our weather history database for the weather conditions in past years. The results will help you decide how hot, cold, wet, or windy it might be!

Date:

Astronomy

Oct. 30, 2013 Rise Set
Actual Time 7:55 AM CDT 6:45 PM CDT
Civil Twilight 7:29 AM CDT 7:11 PM CDT
Nautical Twilight 6:59 AM CDT 7:41 PM CDT
Astronomical Twilight 6:30 AM CDT 8:10 PM CDT
Moon 3:56 AM CDT (10/30) 4:23 PM CDT (10/30)
Length of Visible Light 11h 41m
Length of Day
10h 50m
Waning Crescent, 17% of the Moon is Illuminated
Oct 30
Waning Crescent
Nov 3
New
Nov 9
First Quarter
Nov 17
Full
Nov 25
Last Quarter

Hourly Weather History & Observations

Time (CDT) Temp. Heat Index Dew Point Humidity Pressure Visibility Wind Dir Wind Speed Gust Speed Precip Events Conditions
12:15 AM 72.7 °F - 65.3 °F 78% 29.95 in 10.0 mi SSE 11.5 mph - N/A   Clear
12:35 AM 72.5 °F - 65.5 °F 79% 29.95 in 10.0 mi SSE 12.7 mph - N/A   Clear
12:55 AM 72.5 °F - 65.7 °F 79% 29.93 in 10.0 mi SSE 10.4 mph 17.3 mph N/A   Scattered Clouds
1:15 AM 72.3 °F - 65.7 °F 79% 29.93 in 10.0 mi SSE 11.5 mph - N/A   Clear
1:35 AM 72.1 °F - 65.7 °F 80% 29.92 in 10.0 mi SSE 11.5 mph - N/A   Clear
1:55 AM 72.0 °F - 65.5 °F 80% 29.92 in 10.0 mi SSE 12.7 mph - N/A   Clear
2:15 AM 72.3 °F - 65.3 °F 78% 29.92 in 10.0 mi South 13.8 mph - N/A   Clear
2:35 AM 72.5 °F - 65.3 °F 78% 29.92 in 10.0 mi SSE 11.5 mph 17.3 mph N/A   Clear
2:55 AM 72.3 °F - 65.1 °F 78% 29.92 in 10.0 mi SSE 10.4 mph - N/A   Scattered Clouds
3:15 AM 72.1 °F - 65.1 °F 78% 29.92 in 10.0 mi SSE 9.2 mph - N/A   Mostly Cloudy
3:35 AM 72.5 °F - 65.1 °F 78% 29.92 in 10.0 mi SSE 11.5 mph - N/A   Overcast
3:55 AM 72.5 °F - 65.1 °F 78% 29.91 in 10.0 mi SSE 11.5 mph - N/A   Overcast
4:15 AM 72.9 °F - 65.3 °F 77% 29.90 in 10.0 mi SSE 15.0 mph - N/A   Overcast
4:35 AM 72.9 °F - 65.3 °F 77% 29.90 in 10.0 mi SSE 15.0 mph - N/A   Overcast
4:55 AM 72.3 °F - 65.5 °F 79% 29.90 in 5.0 mi SSE 18.4 mph 24.2 mph 0.01 in   Overcast
5:15 AM 71.4 °F - 66.2 °F 84% 29.89 in 10.0 mi SSE 16.1 mph 20.7 mph N/A   Mostly Cloudy
5:35 AM 71.2 °F - 66.2 °F 84% 29.90 in 10.0 mi SSE 12.7 mph - N/A   Scattered Clouds
5:55 AM 71.6 °F - 66.2 °F 83% 29.90 in 10.0 mi SSE 13.8 mph - N/A   Mostly Cloudy
6:15 AM 72.0 °F - 66.0 °F 81% 29.91 in 10.0 mi SSE 12.7 mph - N/A   Overcast
6:35 AM 72.0 °F - 65.8 °F 81% 29.90 in 10.0 mi SSE 12.7 mph - N/A   Overcast
6:55 AM 71.8 °F - 65.5 °F 80% 29.90 in 10.0 mi SSE 11.5 mph - N/A   Overcast
7:15 AM 71.6 °F - 65.3 °F 80% 29.89 in 10.0 mi SSE 12.7 mph - N/A   Overcast
7:35 AM 71.6 °F - 65.3 °F 80% 29.89 in 10.0 mi SSE 13.8 mph - N/A   Overcast
7:55 AM 71.4 °F - 65.3 °F 81% 29.88 in 10.0 mi SSE 13.8 mph - N/A   Overcast
8:15 AM 71.2 °F - 65.3 °F 81% 29.89 in 10.0 mi South 13.8 mph - N/A   Overcast
8:35 AM 71.6 °F - 65.1 °F 80% 29.88 in 10.0 mi SSE 12.7 mph - N/A   Mostly Cloudy
8:55 AM 71.6 °F - 64.9 °F 79% 29.89 in 10.0 mi South 9.2 mph - N/A   Scattered Clouds
9:15 AM 71.8 °F - 65.3 °F 80% 29.90 in 10.0 mi South 11.5 mph - N/A   Mostly Cloudy
9:35 AM 72.1 °F - 65.3 °F 79% 29.90 in 10.0 mi South 10.4 mph 16.1 mph N/A   Overcast
9:55 AM 72.7 °F - 65.3 °F 78% 29.89 in 10.0 mi South 11.5 mph - N/A   Overcast
10:15 AM 73.4 °F - 65.5 °F 76% 29.89 in 10.0 mi South 12.7 mph - N/A   Overcast
10:35 AM 74.3 °F - 65.7 °F 74% 29.89 in 10.0 mi South 15.0 mph - N/A   Overcast
10:55 AM 75.2 °F - 65.8 °F 73% 29.89 in 10.0 mi South 16.1 mph - N/A   Mostly Cloudy
11:15 AM 76.6 °F - 66.0 °F 70% 29.89 in 10.0 mi South 18.4 mph 21.9 mph N/A   Overcast
11:35 AM 77.4 °F - 65.8 °F 67% 29.88 in 10.0 mi South 19.6 mph 25.3 mph N/A   Overcast
11:55 AM 78.3 °F - 65.7 °F 65% 29.88 in 10.0 mi South 20.7 mph 26.5 mph N/A   Mostly Cloudy
12:15 PM 78.3 °F - 65.3 °F 64% 29.88 in 10.0 mi South 21.9 mph 25.3 mph N/A   Scattered Clouds
12:35 PM 78.1 °F - 65.3 °F 65% 29.87 in 10.0 mi South 19.6 mph - N/A   Scattered Clouds
12:55 PM 78.4 °F - 65.3 °F 64% 29.87 in 10.0 mi South 18.4 mph 25.3 mph N/A   Clear
1:15 PM 78.8 °F - 65.3 °F 63% 29.86 in 10.0 mi South 12.7 mph - N/A   Scattered Clouds
1:35 PM 79.0 °F - 65.3 °F 63% 29.85 in 10.0 mi South 16.1 mph - N/A   Clear
1:55 PM 80.1 °F 82.0 °F 65.3 °F 61% 29.84 in 10.0 mi South 19.6 mph - N/A   Clear
2:15 PM 80.6 °F 82.4 °F 65.3 °F 59% 29.83 in 10.0 mi South 19.6 mph 24.2 mph N/A   Clear
2:35 PM 81.0 °F 82.9 °F 65.3 °F 59% 29.82 in 10.0 mi SSW 18.4 mph - N/A   Clear
2:55 PM 81.1 °F 82.9 °F 65.3 °F 58% 29.81 in 10.0 mi South 18.4 mph - N/A   Scattered Clouds
3:15 PM 80.8 °F 82.6 °F 65.3 °F 59% 29.81 in 10.0 mi South 17.3 mph - N/A   Scattered Clouds
3:35 PM 80.6 °F 82.4 °F 65.3 °F 59% 29.80 in 10.0 mi South 16.1 mph - N/A   Scattered Clouds
3:55 PM 80.2 °F 82.1 °F 65.3 °F 60% 29.80 in 10.0 mi South 18.4 mph 24.2 mph N/A   Scattered Clouds
4:15 PM 79.7 °F - 65.3 °F 61% 29.80 in 10.0 mi South 16.1 mph 23.0 mph N/A   Clear
4:35 PM 79.3 °F - 65.3 °F 62% 29.79 in 10.0 mi SSW 18.4 mph 23.0 mph N/A   Scattered Clouds
4:55 PM 79.7 °F - 65.3 °F 61% 29.79 in 10.0 mi South 19.6 mph 24.2 mph N/A   Scattered Clouds
5:15 PM 79.9 °F - 65.1 °F 61% 29.78 in 10.0 mi South 20.7 mph 26.5 mph N/A   Clear
5:35 PM 79.5 °F - 65.1 °F 61% 29.78 in 10.0 mi SSW 19.6 mph 24.2 mph N/A   Clear
5:55 PM 78.6 °F - 65.3 °F 64% 29.79 in 10.0 mi SSW 18.4 mph - N/A   Mostly Cloudy
6:15 PM 78.1 °F - 65.3 °F 65% 29.78 in 10.0 mi SSW 13.8 mph - N/A   Mostly Cloudy
6:35 PM 77.4 °F - 65.1 °F 66% 29.76 in 10.0 mi SSW 12.7 mph - N/A   Scattered Clouds
7:55 PM 75.0 °F - 64.9 °F 71% 29.76 in 10.0 mi South 15.0 mph - N/A   Scattered Clouds
8:15 PM 75.2 °F - 65.3 °F 71% 29.76 in 10.0 mi South 15.0 mph - N/A   Scattered Clouds
8:35 PM 74.7 °F - 65.3 °F 73% 29.76 in 10.0 mi South 12.7 mph - N/A   Scattered Clouds
8:55 PM 74.3 °F - 65.3 °F 73% 29.76 in 10.0 mi South 15.0 mph - N/A   Scattered Clouds
9:15 PM 74.3 °F - 64.9 °F 72% 29.76 in 10.0 mi South 12.7 mph - N/A   Mostly Cloudy
9:35 PM 74.3 °F - 64.8 °F 72% 29.76 in 10.0 mi South 12.7 mph - N/A   Overcast
9:55 PM 73.4 °F - 64.8 °F 74% 29.77 in 10.0 mi South 13.8 mph - N/A   Overcast
10:15 PM 72.5 °F - 65.3 °F 78% 29.75 in 10.0 mi SSE 15.0 mph 20.7 mph N/A   Overcast
10:35 PM 72.0 °F - 65.8 °F 81% 29.76 in 10.0 mi SSW 9.2 mph - N/A   Overcast
10:55 PM 71.8 °F - 65.8 °F 81% 29.74 in 10.0 mi South 3.5 mph - N/A   Overcast
11:15 PM 71.6 °F - 66.0 °F 82% 29.76 in 10.0 mi SW 5.8 mph - N/A   Overcast
11:35 PM 70.9 °F - 66.4 °F 86% 29.77 in 7.0 mi WSW 6.9 mph - 0.02 in Thunderstorm Overcast
11:55 PM 70.0 °F - 65.3 °F 85% 29.78 in 7.0 mi WNW 21.9 mph 28.8 mph 0.03 in   Overcast